CW3071 Weather Reports


time (UTC)temp
F
wind
direction
speed
knots
gust
knots
rain 1hr
in
rain 24hr
in
rain mn
in
humidity
%
barometer
mb
20260503203114 70 319 8.7 20.0 0.00 0.00 0.00 24 1012.2
20260503201558 69 296 7.0 15.6 0.00 0.00 0.00 25 1012.1
20260503200057 67 335 5.2 10.4 0.00 0.00 0.00 32 1012.2
20260503194558 66 310 3.5 13.0 0.00 0.00 0.00 31 1012.5
20260503193059 66 296 4.3 10.4 0.00 0.00 0.00 32 1012.5
20260503191559 66 251 6.1 12.2 0.00 0.00 0.00 31 1013.1
20260503190055 65 217 3.5 13.0 0.00 0.00 0.00 32 1013.4
20260503184553 65 102 1.7 7.8 0.00 0.00 0.00 33 1013.8
20260503183049 64 175 3.5 8.7 0.00 0.00 0.00 34 1014.0
20260503181602 64 242 2.6 8.7 0.00 0.00 0.00 34 1014.2
20260503180059 63 175 1.7 8.7 0.00 0.00 0.00 36 1014.5
20260503174551 63 0 0.9 5.2 0.00 0.00 0.00 38 1014.7
20260503173100 62 234 2.6 6.1 0.00 0.00 0.00 38 1015.0
20260503171554 61 225 3.5 8.7 0.00 0.00 0.00 40 1015.3
20260503081553 45 0 0.0 0.0 0.00 0.00 0.00 66 1017.0
20260503071559 47 0 0.0 2.6 0.00 0.00 0.00 61 1017.2
20260503060107 51 259 0.9 2.6 0.00 0.00 0.00 53 1017.5
20260503054603 51 169 0.0 4.3 0.00 0.00 0.00 50 1017.0
20260503053051 51 0 0.0 0.9 0.00 0.00 0.00 50 1016.8
20260503051552 51 0 0.9 2.6 0.00 0.00 0.00 51 1016.5
20260503050056 51 311 0.0 1.7 0.00 0.00 0.00 50 1016.6
20260503044601 53 0 0.0 1.7 0.00 0.00 0.00 46 1016.6
20260503043057 52 0 0.0 0.0 0.00 0.00 0.00 45 1016.6
20260503041554 53 0 0.0 0.0 0.00 0.00 0.00 45 1016.7
20260503040100 53 0 0.0 0.0 0.00 0.00 0.00 45 1016.6
20260503034602 54 0 0.0 4.3 0.00 0.00 0.00 45 1016.3
20260503033107 54 313 1.7 3.5 0.00 0.00 0.00 44 1016.2
20260503031552 56 24 0.0 2.6 0.00 0.00 0.00 41 1016.0
20260503030058 57 25 1.7 3.5 0.00 0.00 0.00 39 1016.0
20260503024554 59 30 2.6 6.1 0.00 0.00 0.00 37 1015.7
20260503023058 60 22 3.5 12.2 0.00 0.00 0.00 35 1015.4
20260503021554 61 22 3.5 5.2 0.00 0.00 0.00 36 1015.3
20260503020049 62 28 2.6 7.0 0.00 0.00 0.00 33 1015.3
20260503014550 63 25 3.5 5.2 0.00 0.00 0.00 32 1015.1
20260503013046 65 18 2.6 6.1 0.00 0.00 0.00 30 1014.8
20260503011600 66 12 2.6 8.7 0.00 0.00 0.00 26 1014.7
20260503010055 67 309 3.5 7.8 0.00 0.00 0.00 20 1014.7
20260503004548 69 281 5.2 10.4 0.00 0.00 0.00 17 1014.6
20260503003100 70 257 6.1 11.3 0.00 0.00 0.00 16 1014.8
20260503001545 70 242 3.5 11.3 0.00 0.00 0.00 16 1014.8
20260503000100 70 237 4.3 12.2 0.00 0.00 0.00 15 1015.0
20260502234548 72 245 7.0 13.0 0.00 0.00 0.00 14 1014.9
20260502233056 73 285 5.2 10.4 0.00 0.00 0.00 15 1015.0
20260502231548 73 310 5.2 11.3 0.00 0.00 0.00 15 1015.1
20260502230111 72 236 3.5 13.9 0.00 0.00 0.00 15 1015.1
20260502224557 72 250 5.2 13.0 0.00 0.00 0.00 15 1015.3
20260502223058 71 262 6.1 16.5 0.00 0.00 0.00 16 1015.3
20260502221557 73 355 4.3 12.2 0.00 0.00 0.00 14 1015.5
20260502220058 72 236 3.5 14.8 0.00 0.00 0.00 15 1015.6
20260502214557 72 274 4.3 11.3 0.00 0.00 0.00 15 1015.9
20260502213050 72 273 5.2 13.9 0.00 0.00 0.00 15 1016.2
20260502211555 72 297 3.5 12.2 0.00 0.00 0.00 14 1016.5
20260502210059 71 279 4.3 10.4 0.00 0.00 0.00 15 1016.6
20260502204556 71 247 7.0 14.8 0.00 0.00 0.00 17 1016.8